Latest Coastal Weather Observations for Cape Grim

IDT60701

Issued at 12:11 am EST Wednesday 1 June 2016 (issued every 10 minutes, with the page automatically refreshed every 10 minutes)

About coastal observations | Map of coastal stations | Coastal observations for TAS | Marine services | Other Formats
Station Details ID: 091331 Name: CAPE GRIM Lat: -40.68 Lon: 144.69 Height: 86.0 m
Data from the previous 72 hours. | See also: Recent months at Cape Grim
Date/Time
EST
Temp

°C
Wind Pressure Rain
since 9am
mm
Weather Cloud Vis
km
Sea
Height
m
Swell
Dir
 
Speed
knots
Gust
knots
hPa Trend Height
m
Period
s
Dir
01/12:00am 12.0 ENE 15 19 1030.3 - 1.4 - Cloudy - - - - -
 
Date/Time
EST
Temp

°C
Wind Pressure Rain
since 9am
mm
Weather Cloud Vis
km
Sea
Height
m
Swell
Dir
 
Speed
knots
Gust
knots
hPa Trend Height
m
Period
s
Dir
31/11:30pm 11.7 NE 10 14 1030.4 - 1.4 - Partly cloudy - - - - -
31/11:00pm 11.9 NE 15 18 1030.3 - 1.4 - Partly cloudy - - - - -
31/10:30pm 11.6 NE 14 17 1030.3 - 1.4 - Partly cloudy - - - - -
31/10:00pm 11.7 NE 15 19 1030.6 - 1.4 - Partly cloudy - - - - -
31/09:30pm 11.5 NNE 19 26 1030.5 - 0.8 - Partly cloudy - - - - -
31/09:00pm 11.8 NE 14 17 1030.6 - 0.8 - Mostly cloudy - - - - -
31/08:30pm 11.8 NE 14 17 1030.5 - 0.8 - Partly cloudy - - - - -
31/08:00pm 11.3 ENE 13 17 1030.4 - 0.8 - Partly cloudy - - - - -
31/07:30pm 10.8 ENE 13 16 1030.3 - 0.8 - - - - - - -
31/07:00pm 11.0 ENE 16 19 1030.1 - 0.8 - - - - - - -
31/06:30pm 10.6 ENE 13 16 1030.1 - 0.8 - - - - - - -
31/06:00pm 10.4 E 11 13 1030.0 - 0.8 - Partly cloudy - - - - -
31/05:30pm 10.9 E 12 15 1029.9 - 0.8 - Partly cloudy - - - - -
31/05:00pm 10.8 E 11 13 1029.7 - 0.8 - Partly cloudy - - - - -
31/04:30pm 11.5 E 13 16 1029.6 - 0.8 - Partly cloudy - - - - -
31/04:00pm 11.9 E 14 19 1029.5 - 0.8 - Partly cloudy - - - - -
31/03:30pm 11.9 E 13 16 1029.4 - 0.8 - Partly cloudy - - - - -
31/03:00pm 11.8 E 13 16 1029.3 - 0.8 - Mostly cloudy - - - - -
31/02:30pm 11.7 E 16 19 1029.3 - 0.8 - Partly cloudy - - - - -
31/02:03pm 11.8 E 18 22 1029.5 - 0.8 - Partly cloudy - - - - -
31/02:00pm 11.8 E 18 22 1029.5 - 0.8 - Partly cloudy - - - - -
31/01:36pm 11.8 ENE 17 20 1029.6 - 0.8 - Partly cloudy - - - - -
31/01:30pm 11.7 E 18 24 1029.6 - 0.8 - Partly cloudy - - - - -
31/01:00pm 12.1 E 17 20 1029.7 - 0.0 - Partly cloudy - - - - -
31/12:30pm 12.5 E 17 21 1029.9 - 0.0 - Partly cloudy - - - - -
31/12:00pm 11.6 E 17 21 1030.2 - 0.0 - Mostly cloudy - - - - -
31/11:30am 12.5 E 15 19 1030.7 - 0.0 - Partly cloudy - - - - -
31/11:12am 12.4 E 15 18 1030.9 - 0.0 - Partly cloudy - - - - -
31/11:00am 11.4 E 14 17 1031.1 - 0.0 - Partly cloudy - - - - -
31/10:31am 11.4 E 13 17 1031.3 - 0.0 - Partly cloudy - - - - -
31/10:30am 11.4 E 14 18 1031.3 - 0.0 - Partly cloudy - - - - -
31/10:00am 10.7 E 14 16 1031.3 - 0.0 - Partly cloudy - - - - -
31/09:30am 10.8 E 15 18 1031.3 - 0.0 - Partly cloudy - - - - -
31/09:00am 10.6 E 14 16 1031.2 - 1.0 - Cloudy - - - - -
31/08:30am 9.2 E 11 14 1031.0 - 1.0 - Partly cloudy - - - - -
31/08:00am 9.1 ESE 12 14 1030.8 - 1.0 - Partly cloudy - - - - -
31/07:30am 9.4 ESE 13 16 1030.7 - 1.0 - Partly cloudy - - - - -
31/07:00am 9.3 E 13 14 1030.4 - 0.8 - Partly cloudy - - - - -
31/06:30am 8.9 E 13 15 1030.0 - 0.4 - Partly cloudy - - - - -
31/06:00am 8.7 ESE 11 13 1029.8 - 0.4 - Partly cloudy - - - - -
31/05:30am 8.5 ESE 11 13 1029.7 - 0.4 - Partly cloudy - - - - -
31/05:00am 8.9 E 11 12 1029.6 - 0.4 - Partly cloudy - - - - -
31/04:30am 8.6 E 10 11 1029.4 - 0.4 - Partly cloudy - - - - -
31/04:00am 8.1 E 11 14 1029.4 - 0.4 - - - - - - -
31/03:30am 8.3 ESE 11 12 1029.3 - 0.4 - - - - - - -
31/03:00am 8.2 ESE 10 11 1029.4 - 0.4 - - - - - - -
31/02:30am 8.2 E 10 11 1029.5 - 0.4 - Partly cloudy - - - - -
31/02:00am 8.1 ESE 9 10 1029.5 - 0.4 - - - - - - -
31/01:30am 8.2 ESE 9 10 1029.6 - 0.2 - - - - - - -
31/01:00am 8.4 E 9 11 1029.6 - 0.2 - Partly cloudy - - - - -
31/12:30am 8.3 E 10 12 1029.7 - 0.2 - Partly cloudy - - - - -
31/12:00am 8.1 E 10 11 1029.6 - 0.2 - - - - - - -
 
Date/Time
EST
Temp

°C
Wind Pressure Rain
since 9am
mm
Weather Cloud Vis
km
Sea
Height
m
Swell
Dir
 
Speed
knots
Gust
knots
hPa Trend Height
m
Period
s
Dir
30/11:30pm 8.3 ESE 10 11 1029.5 - 0.2 - Partly cloudy - - - - -
30/11:00pm 9.1 ESE 10 12 1029.5 - 0.2 - Partly cloudy - - - - -
30/10:30pm 8.9 ESE 10 12 1029.5 - 0.0 - Partly cloudy - - - - -
30/10:00pm 9.0 ESE 10 12 1029.4 - 0.0 - Partly cloudy - - - - -
30/09:30pm 8.9 E 11 12 1029.2 - 0.0 - Partly cloudy - - - - -
30/09:00pm 9.2 E 10 11 1029.1 - 0.0 - Cloudy - - - - -
30/08:30pm 8.9 E 11 12 1028.7 - 0.0 - Partly cloudy - - - - -
30/08:00pm 9.6 ESE 11 12 1028.6 - 0.0 - Partly cloudy - - - - -
30/07:30pm 9.6 E 11 12 1028.5 - 0.0 - Partly cloudy - - - - -
30/07:00pm 9.8 E 10 11 1028.2 - 0.0 - Partly cloudy - - - - -
30/06:30pm 9.5 ESE 11 12 1027.9 - 0.0 - Partly cloudy - - - - -
30/06:00pm 9.6 ESE 11 12 1027.6 - 0.0 - - - - - - -
30/05:30pm 9.8 ESE 10 11 1027.4 - 0.0 - - - - - - -
30/05:00pm 10.3 E 9 12 1027.2 - 0.0 - - - - - - -
30/04:30pm 11.1 E 10 12 1027.0 - 0.0 - - - - - - -
30/04:00pm 11.9 E 10 12 1026.8 - 0.0 - - - - - - -
30/03:30pm 12.3 E 11 13 1026.5 - 0.0 - - - - - - -
30/03:00pm 12.6 E 11 14 1026.4 - 0.0 - - - - - - -
30/02:30pm 12.6 ENE 12 14 1026.3 - 0.0 - - - - - - -
30/02:00pm 12.8 E 10 13 1026.3 - 0.0 - - - - - - -
30/01:30pm 12.6 E 9 11 1026.5 - 0.0 - - - - - - -
30/01:00pm 12.6 ESE 8 9 1026.5 - 0.0 - Partly cloudy - - - - -
30/12:30pm 11.9 E 7 9 1026.6 - 0.0 - Partly cloudy - - - - -
30/12:00pm 11.8 ESE 7 9 1026.9 - 0.0 - Partly cloudy - - - - -
30/11:30am 11.6 E 7 9 1027.1 - 0.0 - Partly cloudy - - - - -
30/11:00am 11.2 SE 6 8 1027.3 - 0.0 - Partly cloudy - - - - -
30/10:30am 10.6 SSE 4 5 1027.4 - 0.0 - Cloudy - - - - -
30/10:00am 9.8 SE 5 7 1027.1 - 0.0 - Cloudy - - - - -
30/09:30am 9.5 SSE 5 6 1026.9 - 0.0 - Cloudy - - - - -
30/09:00am 8.2 SE 7 9 1026.5 - 0.0 - Partly cloudy - - - - -
30/08:30am 8.9 S 7 10 1026.3 - 0.0 - Partly cloudy - - - - -
30/08:00am 8.3 SSE 8 11 1026.0 - 0.0 - - - - - - -
30/07:30am 8.1 SSE 8 11 1025.7 - 0.0 - Partly cloudy - - - - -
30/07:00am 7.9 SSE 8 11 1025.4 - 0.0 - Partly cloudy - - - - -
30/06:30am 8.2 SSE 8 11 1025.0 - 0.0 - - - - - - -
30/06:00am 7.8 SSE 8 11 1024.7 - 0.0 - - - - - - -
30/05:30am 7.9 SSE 9 12 1024.5 - 0.0 - - - - - - -
30/05:00am 8.0 S 8 10 1024.2 - 0.0 - - - - - - -
30/04:30am 7.9 S 7 10 1024.1 - 0.0 - - - - - - -
30/04:00am 7.7 S 6 9 1023.8 - 0.0 - - - - - - -
30/03:30am 8.3 S 8 11 1023.6 - 0.0 - - - - - - -
30/03:00am 8.2 S 8 10 1023.7 - 0.0 - - - - - - -
30/02:30am 8.3 S 7 11 1023.6 - 0.0 - - - - - - -
30/02:00am 8.3 S 7 9 1023.3 - 0.0 - - - - - - -
30/01:30am 8.4 S 8 9 1023.1 - 0.0 - - - - - - -
30/01:00am 8.7 S 8 10 1023.1 - 0.0 - - - - - - -
30/12:30am 8.6 S 8 11 1023.0 - 0.0 - - - - - - -
30/12:00am 8.5 S 7 10 1022.9 - 0.0 - - - - - - -
 
Date/Time
EST
Temp

°C
Wind Pressure Rain
since 9am
mm
Weather Cloud Vis
km
Sea
Height
m
Swell
Dir
 
Speed
knots
Gust
knots
hPa Trend Height
m
Period
s
Dir
29/11:30pm 8.7 S 8 11 1022.7 - 0.0 - Partly cloudy - - - - -
29/11:00pm 9.3 S 9 12 1022.6 - 0.0 - - - - - - -
29/10:30pm 8.7 S 8 11 1022.4 - 0.0 - Partly cloudy - - - - -
29/10:00pm 8.6 SSE 7 11 1022.3 - 0.0 - Partly cloudy - - - - -
29/09:30pm 8.8 S 9 11 1022.1 - 0.0 - - - - - - -
29/09:00pm 9.0 S 10 14 1021.8 - 0.0 - Mostly clear - - - - -
29/08:30pm 9.4 SSE 10 13 1021.7 - 0.0 - Cloudy - - - - -
29/08:00pm 9.5 S 10 14 1021.7 - 0.0 - Partly cloudy - - - - -
29/07:30pm 10.8 SSW 12 19 1021.2 - 0.0 - Cloudy - - - - -
29/07:00pm 10.7 SSW 13 20 1020.9 - 0.0 - Partly cloudy - - - - -
29/06:30pm 10.5 SSW 15 19 1020.5 - 0.0 - Partly cloudy - - - - -
29/06:00pm 10.9 SSW 16 23 1020.1 - 0.0 - Cloudy - - - - -
29/05:30pm 10.7 SW 17 23 1019.9 - 0.0 - Cloudy - - - - -
29/05:00pm 10.8 SSW 16 24 1019.6 - 0.0 - Cloudy - - - - -
29/04:30pm 11.1 SW 19 28 1019.3 - 0.0 - Cloudy - - - - -
29/04:00pm 11.2 SSW 19 25 1019.1 - 0.0 - Partly cloudy - - - - -
29/03:30pm 11.1 SSW 19 25 1018.8 - 0.0 - Partly cloudy - - - - -
29/03:00pm 11.3 SW 19 27 1018.7 - 0.0 - Mostly cloudy - - - - -
29/02:45pm 11.1 SW 17 27 1018.6 - 0.0 - Partly cloudy - - - - -
29/02:30pm 11.2 SW 20 28 1018.5 - 0.0 - Partly cloudy - - - - -
29/02:00pm 11.8 SW 21 28 1018.3 - 0.0 - Cloudy - - - - -
29/01:30pm 11.5 SW 22 28 1018.3 - 0.0 - Cloudy - - - - -
29/01:15pm 11.4 SW 18 28 1018.2 - 0.0 - Cloudy - - - - -
29/01:00pm 11.4 SW 17 25 1018.2 - 0.0 - Cloudy - - - - -
29/12:30pm 11.6 SW 20 29 1018.3 - 0.0 - Cloudy - - - - -
29/12:00pm 11.6 SW 21 28 1018.2 - 0.0 - Cloudy - - - - -
29/11:30am 11.7 SSW 17 22 1018.2 - 0.0 - Partly cloudy - - - - -
29/11:00am 12.0 SW 18 24 1018.2 - 0.0 - Partly cloudy - - - - -
29/10:30am 11.5 SW 19 27 1018.1 - 0.0 - Cloudy - - - - -
29/10:01am 11.7 SW 18 28 1017.8 - 0.0 - Partly cloudy - - - - -
29/10:00am 11.8 SW 18 25 1017.8 - 0.0 - Partly cloudy - - - - -
29/09:58am 12.0 SW 19 29 1017.8 - 0.0 - Partly cloudy - - - - -
29/09:30am 11.4 SW 21 26 1017.6 - 0.0 - Partly cloudy - - - - -
29/09:00am 11.3 SW 21 30 1017.3 - 1.6 - Partly cloudy - - - - -
29/08:30am 11.3 SW 21 27 1017.1 - 1.6 - Partly cloudy - - - - -
29/08:00am 11.5 SW 22 28 1016.7 - 1.6 - Partly cloudy - - - - -
29/07:30am 11.5 SW 22 28 1016.2 - 1.6 - Partly cloudy - - - - -
29/07:00am 11.5 SW 23 28 1016.0 - 1.6 - Partly cloudy - - - - -
29/06:30am 11.5 SW 23 29 1015.6 - 1.6 - Partly cloudy - - - - -
29/06:00am 11.6 SW 23 29 1015.4 - 1.6 - Mostly clear - - - - -
29/05:30am 11.4 SW 22 28 1015.0 - 1.6 - Partly cloudy - - - - -
29/05:00am 11.5 SW 24 30 1014.7 - 1.6 - Partly cloudy - - - - -
29/04:30am 11.4 SW 24 30 1014.5 - 1.6 - Partly cloudy - - - - -
29/04:00am 11.5 SW 23 30 1014.3 - 1.6 - Partly cloudy - - - - -
29/03:30am 11.5 SW 24 29 1014.1 - 1.6 - Partly cloudy - - - - -
29/03:00am 11.7 SW 24 32 1014.0 - 1.6 - Partly cloudy - - - - -
29/02:33am 11.5 SSW 19 29 1013.8 - 1.6 - Partly cloudy - - - - -
29/02:30am 11.2 SSW 18 23 1013.9 - 1.6 - Partly cloudy - - - - -
29/02:12am 11.7 SW 21 31 1013.7 - 1.6 - Partly cloudy - - - - -
29/02:00am 11.6 SW 22 30 1013.6 - 1.6 - Partly cloudy - - - - -
29/01:43am 11.6 SW 25 35 1013.4 - 1.6 - Partly cloudy - - - - -
29/01:30am 11.4 SW 25 33 1013.3 - 1.6 - Partly cloudy - - - - -
29/01:00am 11.8 SW 25 31 1013.2 - 1.6 - Partly cloudy - - - - -
29/12:30am 11.9 SW 24 32 1013.2 - 1.6 - Partly cloudy - - - - -
29/12:15am 11.9 SSW 22 32 1013.2 - 1.6 - Partly cloudy - - - - -

Other Formats:

Comma delimited format used in spreadsheet applications
http://www.bom.gov.au/fwo/IDT60701/IDT60701.95954.axf

JavaScript Object Notation format (JSON) in row-major order
http://www.bom.gov.au/fwo/IDT60701/IDT60701.95954.json